• In Uzbekistan
  • List of Countries
  • For 7 days
  • Water Temperature
  • Satellite Maps
  • Weather Map
  • Weather Widgets
  • user-avatar
    Login

    Hourly Weather Berat

    Today, 24 March, Sunday

    Time Temperature Precipitation Wind Pressure Humidity
    00:00 +14°C° 0 mm 2 mps 747 mmHg 54%
    01:00 +14°C° 0 mm 2 mps 747 mmHg 52%
    02:00 +13°C° 0 mm 2 mps 747 mmHg 53%
    03:00 +13°C° 0 mm 2 mps 747 mmHg 55%
    04:00 +13°C° 0 mm 2 mps 747 mmHg 57%
    05:00 +13°C° 0 mm 2 mps 747 mmHg 58%
    06:00 +14°C° 0 mm 2 mps 747 mmHg 59%
    07:00 +13°C° 0 mm 3 mps 747 mmHg 58%
    08:00 +17°C° 0 mm 2 mps 747 mmHg 50%
    09:00 +19°C° 0 mm 2 mps 747 mmHg 43%
    10:00 +22°C° 0 mm 1 mps 747 mmHg 36%
    11:00 +22°C° 0 mm 1 mps 747 mmHg 34%
    12:00 +23°C° 0 mm 2 mps 747 mmHg 32%
    13:00 +24°C° 0 mm 2 mps 747 mmHg 30%
    14:00 +22°C° 0 mm 3 mps 747 mmHg 34%
    15:00 +21°C° 0 mm 3 mps 746 mmHg 38%
    16:00 +21°C° 0 mm 3 mps 746 mmHg 42%
    17:00 +19°C° 0 mm 2 mps 746 mmHg 49%
    18:00 +17°C° 0 mm 2 mps 746 mmHg 56%
    19:00 +15°C° 0 mm 1 mps 746 mmHg 64%
    20:00 +14°C° 0 mm 1 mps 746 mmHg 63%
    21:00 +14°C° 0 mm 1 mps 746 mmHg 63%
    22:00 +12°C° 0 mm 0 mps 747 mmHg 62%
    23:00 +13°C° 0 mm 1 mps 746 mmHg 61%

    Tomorrow, 25 March, Monday

    Time Temperature Precipitation Wind Pressure Humidity
    00:00 +13°C° 0 mm 1 mps 746 mmHg 60%
    01:00 +13°C° 0 mm 1 mps 746 mmHg 59%
    02:00 +13°C° 0 mm 1 mps 746 mmHg 59%
    03:00 +12°C° 0 mm 1 mps 745 mmHg 59%
    04:00 +12°C° 0 mm 1 mps 745 mmHg 59%
    05:00 +13°C° 0 mm 1 mps 745 mmHg 59%
    06:00 +13°C° 0 mm 1 mps 745 mmHg 58%
    07:00 +14°C° 0 mm 1 mps 745 mmHg 57%
    08:00 +16°C° 0 mm 1 mps 745 mmHg 50%
    09:00 +18°C° 0 mm 1 mps 744 mmHg 43%
    10:00 +19°C° 0 mm 2 mps 744 mmHg 36%
    11:00 +19°C° 0 mm 2 mps 744 mmHg 35%
    12:00 +20°C° 0 mm 3 mps 743 mmHg 34%
    13:00 +21°C° 0 mm 3 mps 743 mmHg 33%
    14:00 +20°C° 0 mm 3 mps 742 mmHg 35%
    15:00 +19°C° 0 mm 3 mps 742 mmHg 38%
    16:00 +19°C° 0 mm 3 mps 741 mmHg 40%
    17:00 +17°C° 0 mm 2 mps 741 mmHg 46%
    18:00 +15°C° 0 mm 1 mps 741 mmHg 53%
    19:00 +12°C° 0 mm 0 mps 741 mmHg 59%
    20:00 +13°C° 0 mm 1 mps 741 mmHg 58%
    21:00 +13°C° 0 mm 1 mps 741 mmHg 58%
    22:00 +12°C° 0 mm 1 mps 741 mmHg 57%
    23:00 +12°C° 0 mm 1 mps 740 mmHg 57%

    Day after tomorrow, 26 March, Tuesday

    Time Temperature Precipitation Wind Pressure Humidity
    00:00 +12°C° 0 mm 1 mps 740 mmHg 56%
    01:00 +12°C° 0 mm 1 mps 740 mmHg 56%
    02:00 +11°C° 0 mm 1 mps 740 mmHg 56%
    03:00 +11°C° 0 mm 1 mps 740 mmHg 55%
    04:00 +11°C° 0 mm 1 mps 740 mmHg 55%
    05:00 +12°C° 0 mm 1 mps 740 mmHg 55%
    06:00 +13°C° 0 mm 1 mps 740 mmHg 55%
    07:00 +13°C° 0 mm 1 mps 741 mmHg 55%
    08:00 +15°C° 0 mm 1 mps 741 mmHg 50%
    09:00 +18°C° 0 mm 1 mps 741 mmHg 46%
    10:00 +20°C° 0 mm 1 mps 741 mmHg 41%
    11:00 +19°C° 0 mm 2 mps 741 mmHg 40%
    12:00 +20°C° 0 mm 2 mps 741 mmHg 39%
    13:00 +20°C° 0 mm 3 mps 741 mmHg 39%
    14:00 +19°C° 0.3 mm 3 mps 741 mmHg 44%
    15:00 +19°C° 0.3 mm 3 mps 741 mmHg 49%
    16:00 +18°C° 0.3 mm 3 mps 741 mmHg 54%
    17:00 +17°C° 0.2 mm 2 mps 742 mmHg 59%
    18:00 +15°C° 0.2 mm 2 mps 743 mmHg 64%
    19:00 +14°C° 0.2 mm 1 mps 743 mmHg 69%
    20:00 +13°C° 0 mm 1 mps 744 mmHg 68%
    21:00 +13°C° 0 mm 2 mps 744 mmHg 67%
    22:00 +13°C° 0 mm 2 mps 745 mmHg 66%
    23:00 +12°C° 0 mm 2 mps 745 mmHg 66%

    27 March, Wednesday

    Time Temperature Precipitation Wind Pressure Humidity
    00:00 +12°C° 0 mm 2 mps 745 mmHg 66%
    01:00 +10°C° 0 mm 2 mps 745 mmHg 66%
    02:00 +10°C° 0 mm 2 mps 745 mmHg 66%
    03:00 +10°C° 0 mm 2 mps 745 mmHg 66%
    04:00 +9°C° 0 mm 2 mps 745 mmHg 66%
    05:00 +10°C° 0 mm 2 mps 745 mmHg 64%
    06:00 +10°C° 0 mm 3 mps 746 mmHg 61%
    07:00 +11°C° 0 mm 3 mps 746 mmHg 59%
    08:00 +13°C° 0 mm 2 mps 746 mmHg 54%
    09:00 +15°C° 0 mm 2 mps 746 mmHg 48%
    10:00 +17°C° 0 mm 2 mps 746 mmHg 43%
    11:00 +17°C° 0.3 mm 2 mps 746 mmHg 45%
    12:00 +17°C° 0.3 mm 2 mps 746 mmHg 46%
    13:00 +19°C° 0.3 mm 1 mps 746 mmHg 48%
    14:00 +18°C° 0.6 mm 1 mps 746 mmHg 51%
    15:00 +18°C° 0.6 mm 1 mps 746 mmHg 53%
    16:00 +16°C° 0.6 mm 1 mps 745 mmHg 56%
    17:00 +15°C° 0.3 mm 1 mps 746 mmHg 62%
    18:00 +14°C° 0.3 mm 1 mps 746 mmHg 68%
    19:00 +13°C° 0.3 mm 1 mps 746 mmHg 74%
    20:00 +13°C° 0.2 mm 1 mps 746 mmHg 74%
    21:00 +13°C° 0.2 mm 1 mps 746 mmHg 74%
    22:00 +12°C° 0.2 mm 2 mps 747 mmHg 74%
    23:00 +12°C° 0 mm 2 mps 747 mmHg 73%

    28 March, Thursday

    Time Temperature Precipitation Wind Pressure Humidity
    00:00 +12°C° 0 mm 2 mps 747 mmHg 72%
    01:00 +10°C° 0 mm 2 mps 747 mmHg 71%
    02:00 +10°C° 0 mm 2 mps 747 mmHg 70%
    03:00 +10°C° 0 mm 2 mps 746 mmHg 70%
    04:00 +10°C° 0 mm 2 mps 746 mmHg 69%
    05:00 +10°C° 0.1 mm 2 mps 747 mmHg 68%
    06:00 +10°C° 0.1 mm 2 mps 747 mmHg 68%
    07:00 +10°C° 0.1 mm 3 mps 747 mmHg 67%
    08:00 +11°C° 0 mm 3 mps 747 mmHg 62%
    09:00 +13°C° 0 mm 4 mps 748 mmHg 56%
    10:00 +14°C° 0 mm 4 mps 748 mmHg 51%
    11:00 +15°C° 0 mm 4 mps 748 mmHg 48%
    12:00 +15°C° 0 mm 4 mps 748 mmHg 46%
    13:00 +16°C° 0 mm 5 mps 748 mmHg 43%
    14:00 +16°C° 0 mm 5 mps 747 mmHg 44%
    15:00 +15°C° 0 mm 5 mps 747 mmHg 44%
    16:00 +15°C° 0 mm 5 mps 747 mmHg 44%
    17:00 +14°C° 0 mm 4 mps 747 mmHg 48%
    18:00 +12°C° 0 mm 3 mps 748 mmHg 52%
    19:00 +10°C° 0 mm 3 mps 748 mmHg 56%
    20:00 +10°C° 0 mm 3 mps 748 mmHg 58%
    21:00 +9°C° 0 mm 3 mps 749 mmHg 60%
    22:00 +9°C° 0 mm 2 mps 749 mmHg 63%
    23:00 +9°C° 0 mm 2 mps 749 mmHg 64%

    29 March, Friday

    Time Temperature Precipitation Wind Pressure Humidity
    00:00 +8°C° 0 mm 2 mps 750 mmHg 66%
    01:00 +8°C° 0 mm 2 mps 750 mmHg 67%
    02:00 +8°C° 0 mm 2 mps 750 mmHg 68%
    03:00 +8°C° 0 mm 2 mps 750 mmHg 70%
    04:00 +7°C° 0 mm 2 mps 750 mmHg 71%
    05:00 +8°C° 0 mm 2 mps 750 mmHg 69%
    06:00 +9°C° 0 mm 2 mps 751 mmHg 68%
    07:00 +9°C° 0 mm 3 mps 751 mmHg 66%
    08:00 +11°C° 0 mm 3 mps 751 mmHg 58%
    09:00 +12°C° 0 mm 3 mps 751 mmHg 49%
    10:00 +14°C° 0 mm 3 mps 751 mmHg 41%
    11:00 +14°C° 0 mm 4 mps 750 mmHg 38%
    12:00 +15°C° 0 mm 4 mps 750 mmHg 34%
    13:00 +17°C° 0 mm 4 mps 750 mmHg 31%
    14:00 +15°C° 0 mm 4 mps 749 mmHg 31%
    15:00 +15°C° 0 mm 4 mps 749 mmHg 31%
    16:00 +15°C° 0 mm 4 mps 749 mmHg 31%
    17:00 +13°C° 0 mm 4 mps 749 mmHg 34%
    18:00 +11°C° 0 mm 3 mps 749 mmHg 38%
    19:00 +10°C° 0 mm 2 mps 749 mmHg 41%
    20:00 +9°C° 0 mm 2 mps 750 mmHg 43%
    21:00 +9°C° 0 mm 2 mps 750 mmHg 45%
    22:00 +8°C° 0 mm 2 mps 750 mmHg 47%
    23:00 +8°C° 0 mm 2 mps 750 mmHg 48%
    Show more